Home > Weather > Muttenz > Past weeks

Flag for Switzerland Past Weather in Muttenz, Basel-Land, Switzerland — Yesterday and Last 2 Weeks

Now
64 °F

Clear.


Feels Like: 64 °F
Forecast: 58 / 75 °F
Wind: 2 mph from North

Location: Bale-Mulhouse

Current Time: Jul 27, 2016 at 3:54:49 AM

Latest Report: Jul 27, 2016 at 3:30 AM


Visibility: 10 mi

Pressure: 30.09 "Hg

Humidity: 94%

Dew Point: 63 °F

Location of MuttenzLocation

Past Weather in Muttenz — Graph

°F

Muttenz Temperature Yesterday

Maximum temperature yesterday: 84 °F (at 2:30 PM)
Minimum temperature yesterday: 61 °F (at 6:00 AM)
Average temperature yesterday: 73 °F

High & Low Weather Summary for the Past Weeks

 TemperatureHumidityPressure
High95 °F (Jul 20, 3:30 PM)100% (Jul 13, 1:30 AM)30.33 "Hg (Jul 13, 1:30 AM)
Low45 °F (Jul 16, 5:00 AM)27% (Jul 19, 7:00 PM)29.95 "Hg (Jul 12, 5:30 PM)
Average68 °F73%30.11 "Hg
* Reported Jul 12 2:00 AM — Jul 27 2:30 AM, Muttenz, Weather by CustomWeather, © 2016

Note: Actual official high and low records may vary slightly from our data, if they occured in-between our weather recording intervals... More about our weather records

Advertising

Muttenz Weather History for the Previous 24 Hours

Scroll right to see more
 ConditionsComfort  
Time TempWeatherWind HumidityBarometerVisibility
2:30 AM
Wed, Jul 27
64 °FClear.2 mph94%30.09 "Hg10 mi
2:00 AM66 °FPassing clouds.5 mph88%30.09 "HgN/A
1:30 AM68 °FPassing clouds.7 mph83%30.09 "HgN/A
1:00 AM68 °FPassing clouds.8 mph83%30.09 "HgN/A
12:30 AM70 °FMild.6 mph78%30.12 "HgN/A
12:00 AM70 °FPassing clouds.8 mph78%30.12 "HgN/A
11:30 PM
Tue, Jul 26
70 °FPassing clouds.5 mph78%30.09 "HgN/A
11:00 PM70 °FPassing clouds.5 mph78%30.09 "HgN/A
10:30 PM72 °FPassing clouds.6 mph73%30.09 "HgN/A
10:00 PM73 °FSprinkles. Partly sunny.8 mph74%30.09 "HgN/A
9:30 PM75 °FPartly sunny.7 mph65%30.09 "HgN/A
9:00 PM75 °FPartly sunny.7 mph61%30.09 "HgN/A
8:30 PM77 °FPartly sunny.6 mph57%30.07 "HgN/A
8:00 PM77 °FBroken clouds.6 mph57%30.07 "HgN/A
7:30 PM79 °FScattered clouds.6 mph54%30.07 "HgN/A
7:00 PM81 °FScattered clouds.7 mph51%30.07 "HgN/A
6:30 PM82 °FScattered clouds.8 mph51%30.07 "HgN/A
6:00 PM82 °FScattered clouds.9 mph51%30.07 "HgN/A
5:30 PM84 °FScattered clouds.10 mph45%30.07 "HgN/A
5:00 PM84 °FScattered clouds.9 mph43%30.07 "HgN/A
4:30 PM84 °FScattered clouds.9 mph45%30.07 "HgN/A
2:30 PM84 °FPassing clouds.7 mph43%30.09 "HgN/A
2:00 PM82 °FPassing clouds.5 mph45%30.09 "HgN/A
1:30 PM82 °FPassing clouds.5 mph48%30.09 "HgN/A
1:00 PM82 °FPassing clouds.5 mph48%30.12 "HgN/A
12:30 PM81 °FPassing clouds.3 mph54%30.12 "HgN/A
12:00 PM79 °FPassing clouds.5 mph58%30.12 "HgN/A
11:30 AM77 °FPassing clouds.5 mph65%30.12 "HgN/A
11:00 AM77 °FPartly sunny.5 mph65%30.12 "HgN/A
10:30 AM75 °FPartly sunny.2 mph65%30.12 "HgN/A
10:00 AM75 °FPartly sunny.3 mph65%30.12 "HgN/A
9:30 AM73 °FPartly sunny.1 mph69%30.12 "HgN/A
9:00 AM70 °FPartly sunny.No wind83%30.15 "HgN/A
8:30 AM68 °FSunny.No wind83%30.12 "Hg10 mi
8:00 AM68 °FSunny.1 mph83%30.12 "Hg10 mi
7:30 AM66 °FSunny.2 mph94%30.12 "Hg10 mi
7:00 AM63 °FSunny.2 mph94%30.12 "Hg10 mi
6:30 AM61 °FClear.2 mph94%30.12 "Hg10 mi
6:00 AM61 °FFog.1 mph94%30.12 "HgN/A
5:30 AM63 °FClear.No wind94%30.12 "Hg10 mi
5:00 AM64 °FClear.No wind94%30.12 "Hg10 mi
4:30 AM66 °FClear.1 mph88%30.12 "Hg10 mi
4:00 AM66 °FClear.1 mph88%30.12 "Hg10 mi
3:30 AM66 °FClear.2 mph88%30.12 "Hg10 mi
3:00 AM64 °FClear.No wind94%30.12 "Hg10 mi
Weather by CustomWeather, © 2016

See weather overviewHow to use our weather pages